Temperature
18 19 19 20 16 13 16 17 17 18 19 20 20 20 18 18 19 20 21 20 19 19 18 16 15 14 13 12 12 12 12 11 11 11 11 11 10 10 10 10 10 10 10 10 10 10 11 11 11
18 19 19 19 14 15 16 17 17 18 20 20 20 20 20 20 20 21 20 20 19 18 18 17 15 14 13 13 12 12 12 11 11 11 11 10 10 10 10 10 10 10 10 11 11 11 11 11 11
18 19 19 14 14 15 18 18 17 19 20 20 20 20 20 20 21 21 20 20 19 18 18 17 15 14 13 13 12 12 11 11 11 11 11 10 10 10 10 10 10 10 11 11 11 11 11 11 11
18 19 18 14 17 16 17 18 18 19 20 20 20 20 20 20 21 20 20 20 19 18 18 17 16 14 13 13 12 12 11 11 11 10 10 10 10 10 10 10 10 10 11 11 11 11 11 11 11
18 18 15 15 17 17 16 18 18 19 19 20 20 19 20 20 20 20 20 20 19 18 17 16 15 14 13 12 12 12 11 11 10 10 10 10 10 10 10 10 10 10 10 10 10 11 11 11 11
18 15 14 15 16 17 17 18 19 19 19 20 19 19 20 20 20 20 20 19 18 18 17 16 15 13 13 12 12 12 11 11 10 10 10 10 10 10 10 10 10 10 10 10 10 10 10 11 11
17 13 15 16 16 17 18 19 19 18 19 19 20 19 20 20 20 20 19 19 18 17 17 16 14 13 12 12 12 11 11 10 10 10 10 10 9 9 10 10 10 10 10 10 10 10 10 10 10
18 14 15 15 16 18 18 19 19 19 19 20 20 19 20 20 20 19 19 18 17 17 16 15 14 13 12 12 11 11 11 10 10 10 10 10 9 9 9 9 9 9 9 10 10 10 10 10 10
18 14 15 16 17 18 18 19 20 19 19 19 20 20 20 20 19 19 18 18 17 16 16 15 14 13 12 11 11 11 11 10 10 10 10 9 9 9 9 9 9 9 9 9 9 9 9 9 9
17 14 16 17 17 18 18 19 19 19 19 19 19 20 20 20 19 19 19 18 18 17 16 15 14 13 12 11 11 11 10 10 10 10 9 9 9 9 9 9 9 9 8 8 8 8 8 9 9
17 15 16 17 18 18 18 18 19 18 17 19 20 20 19 19 19 19 19 19 18 17 16 15 14 13 12 12 11 11 10 10 10 10 9 9 9 9 9 8 8 8 8 8 8 8 8 8 8
16 16 17 18 19 18 18 18 18 18 19 19 19 19 19 19 19 18 18 18 17 17 16 15 14 13 12 12 11 11 10 10 10 9 9 9 9 9 8 8 8 8 8 8 7 7 7 7 7
16 16 17 18 18 18 18 17 17 18 19 19 18 18 18 18 18 18 18 17 17 16 16 15 14 13 12 12 11 11 10 10 10 9 9 9 9 9 8 8 8 8 8 8 7 7 7 7 7
16 17 17 17 17 17 16 16 16 18 19 18 18 18 18 18 18 17 17 17 17 16 16 15 14 13 12 12 11 11 11 10 10 10 9 9 9 9 9 8 8 8 8 8 7 7 7 7 7
16 15 15 16 16 16 16 15 14 18 18 18 18 18 18 18 17 17 17 17 17 16 16 15 14 13 12 12 12 11 11 10 10 10 9 9 9 9 9 8 8 8 8 8 7 7 7 7 7
15 14 14 15 15 16 16 15 15 18 17 17 18 18 18 17 17 17 17 17 16 16 16 15 14 13 13 12 11 11 11 10 10 10 9 9 9 9 9 8 8 8 8 8 7 7 7 7 7
14 13 14 14 15 15 15 14 15 17 16 16 17 17 17 17 17 17 17 16 16 16 16 15 14 14 13 12 11 11 11 10 10 10 9 9 9 9 9 8 8 8 8 8 7 7 7 7 7
13 13 13 14 14 15 14 13 14 16 15 15 16 16 17 17 17 17 16 16 16 16 16 15 14 13 13 12 11 11 10 10 10 10 9 9 9 9 9 8 8 8 8 7 7 7 7 7 7
14 13 13 13 14 14 13 13 14 15 14 14 14 15 16 16 16 16 16 16 16 16 15 15 14 13 12 12 11 11 10 10 10 10 9 9 9 9 9 8 8 8 8 7 7 7 7 7 6
13 13 12 12 13 13 12 12 13 12 13 14 15 15 16 16 16 16 16 16 15 15 15 14 14 13 12 12 11 11 10 10 10 10 9 9 9 9 9 8 8 8 7 7 7 7 6 6 6
12 12 12 13 13 13 12 12 12 13 13 14 14 16 16 16 16 16 15 15 15 15 14 14 13 13 12 11 11 11 10 10 10 9 9 9 9 9 8 8 8 8 7 7 7 6 6 6 5
12 12 12 13 12 11 12 11 12 12 12 12 13 13 15 15 16 15 15 15 15 14 14 13 13 12 12 11 11 11 10 10 10 9 9 9 9 8 8 8 8 7 7 7 6 6 6 5 5
12 13 13 13 12 11 11 11 12 12 12 13 12 13 14 15 15 15 15 15 14 14 13 13 13 12 12 11 11 11 10 10 10 10 9 9 9 8 8 8 8 7 7 7 6 6 6 5 5
13 12 11 9 10 10 11 10 11 11 13 13 12 13 14 14 14 14 14 14 14 13 13 13 13 12 12 11 11 11 10 10 10 10 9 9 9 8 8 8 7 7 7 6 6 6 5 5 5
12 12 11 11 10 10 10 10 11 12 12 12 12 13 14 14 14 14 14 14 13 13 13 13 13 12 12 11 11 11 10 10 10 10 9 9 9 8 8 7 7 7 6 6 6 5 5 5 4
11 12 11 11 11 10 10 9 11 12 12 13 13 13 14 13 14 14 14 14 13 13 13 13 12 12 12 11 11 11 10 10 10 9 9 9 8 8 7 7 7 6 6 6 5 5 5 4 4
11 11 11 10 10 10 10 10 11 13 13 12 12 12 12 13 14 14 14 14 13 13 13 13 12 12 12 11 11 10 10 10 10 9 9 8 8 7 7 7 6 6 5 5 5 5 4 4 4
11 10 9 10 10 10 10 10 12 14 14 12 11 11 12 13 13 14 14 14 13 13 13 12 12 12 11 11 11 10 10 9 9 9 8 8 7 7 7 6 6 5 5 5 4 4 4 3 3
10 10 10 9 9 10 10 11 12 12 13 12 11 12 13 13 14 14 14 14 13 13 12 12 12 11 11 11 10 10 9 9 9 8 8 7 7 7 6 6 5 5 5 4 4 4 3 3 3
11 10 10 10 9 8 8 11 13 12 11 11 12 14 14 14 14 14 14 13 13 13 12 12 12 11 11 10 10 9 9 9 8 8 7 7 7 6 6 5 5 4 4 4 3 3 3 2 2
Wind_Speed
4 3 3 4 6 5 1 3 3 2 3 2 2 6 9 7 5 3 1 11 8 11 20 20 20 18 16 15 15 14 13 12 12 12 11 11 11 11 11 12 12 12 13 13 13 13 13 13 14
1 1 5 5 5 2 4 4 4 5 3 3 4 4 4 2 1 3 3 9 10 17 20 19 21 19 18 16 15 15 14 13 12 11 11 11 11 11 11 11 11 11 11 12 12 12 12 12 13
1 4 5 5 4 5 4 4 5 3 1 2 3 1 3 2 1 4 5 11 11 16 18 20 22 20 19 17 16 15 15 13 12 11 11 11 10 10 10 10 10 10 11 11 11 11 11 11 12
3 5 5 5 2 4 4 3 2 2 1 2 4 2 1 1 1 2 8 11 12 13 17 20 22 20 19 18 17 15 14 14 13 12 11 10 10 10 9 9 9 9 9 10 10 10 10 10 10
4 5 5 3 3 4 4 3 1 1 1 1 4 4 2 2 2 5 11 12 14 11 16 19 22 20 19 18 17 16 14 13 13 12 11 10 10 9 9 8 8 8 8 8 9 9 9 9 9
5 5 4 1 4 5 4 2 1 1 1 0 4 4 3 2 3 6 10 10 11 11 15 18 21 20 19 18 17 16 14 13 12 12 11 10 9 8 8 7 7 7 7 7 7 8 8 8 8
5 5 4 2 2 4 3 2 2 2 1 2 5 4 4 1 4 7 9 9 9 12 13 14 18 19 19 18 17 16 15 14 13 12 11 10 9 8 7 6 6 5 5 5 5 6 6 6 6
5 5 3 1 1 3 4 1 1 2 2 0 4 5 4 2 7 9 9 8 8 8 9 11 15 17 17 18 18 17 15 14 13 12 11 11 9 8 7 6 5 4 3 3 3 4 4 5 5
4 5 2 4 4 3 2 1 2 1 1 0 1 3 1 7 10 10 8 6 9 10 8 9 11 14 16 16 17 17 16 14 13 12 12 11 9 8 7 6 5 3 2 1 1 3 3 4 5
5 3 5 4 4 3 2 2 2 1 2 2 4 2 4 7 10 11 11 13 14 15 12 8 9 12 14 15 15 15 15 14 13 12 12 12 10 9 7 6 5 4 2 2 2 3 4 4 4
4 6 4 4 4 3 3 3 2 3 7 9 9 7 6 7 8 10 11 12 14 14 14 11 9 13 13 12 12 12 12 12 12 13 13 12 10 8 7 6 5 4 3 2 3 3 3 4 5
3 4 4 4 3 3 4 3 4 7 11 8 8 5 7 9 11 12 12 11 10 11 14 12 10 11 12 13 11 11 11 10 10 12 13 12 9 8 7 7 7 6 5 5 5 5 5 6 6
3 4 3 4 5 4 5 7 6 9 10 4 3 5 9 9 9 8 7 7 8 12 14 13 11 10 11 11 10 10 10 11 12 12 13 13 10 8 8 7 7 8 7 7 6 6 6 6 7
3 3 5 6 6 4 6 7 5 11 4 3 5 7 8 9 9 6 6 8 10 12 14 13 14 12 11 9 8 9 11 11 12 12 13 14 11 9 7 7 7 8 8 8 7 6 6 6 7
1 4 8 5 3 3 2 7 8 8 3 4 6 6 6 7 6 7 8 8 10 10 12 14 14 12 11 10 10 10 11 11 10 11 12 12 11 10 8 6 6 7 7 7 6 5 5 5 5
3 4 4 6 3 1 2 9 10 3 4 7 7 6 6 6 6 7 7 7 8 9 11 13 12 12 11 9 9 9 10 10 9 10 10 11 11 10 8 5 5 6 5 5 4 3 3 4 4
3 2 4 7 3 1 3 9 10 2 5 8 8 8 7 6 6 5 5 6 7 9 11 12 12 13 12 9 9 9 9 8 8 8 8 8 8 8 7 5 5 5 4 4 3 2 2 3 4
5 4 5 6 5 2 6 12 15 7 8 10 10 9 8 8 7 4 3 3 5 7 9 11 10 11 10 7 6 5 5 4 6 6 6 6 6 6 6 4 4 4 2 2 1 2 2 3 3
5 5 7 8 6 4 10 15 18 12 9 11 11 10 10 9 5 2 2 3 5 6 8 10 11 10 10 7 6 5 4 3 3 3 4 5 5 5 5 3 2 2 2 2 1 1 2 2 1
5 5 7 8 5 4 9 14 14 11 10 11 12 13 12 8 5 4 3 3 5 6 8 9 10 11 10 7 5 4 4 3 3 4 5 4 4 4 4 3 2 2 1 1 1 1 0 1 0
6 7 8 9 7 5 7 10 9 8 6 8 9 10 10 11 10 7 6 5 5 6 8 9 9 10 9 9 6 5 5 4 3 3 2 3 4 5 4 4 3 2 2 1 1 2 2 1 1
8 9 8 6 4 6 3 7 10 8 9 9 9 9 10 9 9 8 8 7 6 6 6 8 8 9 9 9 9 8 5 4 4 3 3 3 5 5 5 5 4 3 2 1 1 1 2 2 2
9 3 4 3 4 5 3 5 10 7 9 11 9 10 9 10 10 10 9 8 6 6 7 7 9 8 8 8 9 9 6 4 4 3 4 3 3 4 4 4 4 3 2 1 1 1 1 2 3
6 6 5 5 3 4 6 7 9 7 9 9 6 8 9 9 9 8 7 7 6 6 7 8 9 7 7 8 8 9 9 8 7 5 4 3 2 2 3 3 3 2 1 1 1 1 2 3 3
6 5 2 4 1 7 4 5 11 12 9 9 11 9 9 10 10 10 10 9 8 8 8 8 9 8 7 8 8 8 9 9 8 6 5 4 2 1 1 1 1 1 1 1 1 1 2 3 4
8 10 8 6 5 5 2 7 10 11 9 9 9 7 8 10 11 11 11 10 10 10 9 9 9 8 8 8 7 7 8 6 5 5 5 4 3 2 2 1 1 1 1 1 1 1 3 3 4
8 7 8 6 2 4 7 8 11 8 6 6 5 3 8 11 12 11 10 10 10 11 10 10 10 9 8 8 8 7 7 6 6 5 4 3 3 2 2 2 1 1 2 2 2 2 4 4 4
8 10 6 6 5 6 7 6 6 9 9 8 5 5 7 8 9 10 10 10 10 9 8 9 9 9 8 8 8 7 7 6 6 6 5 4 3 2 2 2 2 2 2 3 2 3 4 5 5
7 6 6 6 5 6 5 7 7 9 8 9 9 7 7 9 11 11 10 9 9 8 9 9 9 8 8 8 8 8 7 6 6 5 5 4 3 3 3 2 2 3 3 3 4 5 6 6 7
8 10 9 7 7 6 4 8 7 7 8 8 8 6 6 9 9 9 9 9 9 10 10 10 10 9 9 8 8 8 7 6 6 5 5 4 4 3 3 3 3 4 4 5 5 6 6 7 8
Wind_Direction
348 8 62 56 55 53 223 245 226 230 241 223 155 149 150 161 165 193 326 148 141 151 169 171 165 164 160 153 145 141 137 130 124 117 113 108 102 93 86 81 78 75 72 70 68 67 66 65 64
345 51 55 60 86 93 268 244 221 219 225 115 98 118 134 183 174 139 143 169 151 156 166 169 166 164 161 156 149 147 142 136 130 123 118 112 104 97 91 85 81 78 75 72 70 68 67 65 64
58 51 80 75 114 173 226 233 220 265 280 129 110 103 157 162 147 181 182 162 148 157 166 169 166 165 164 160 154 150 145 142 136 130 125 116 108 102 95 89 84 81 77 74 71 69 68 66 63
76 48 57 77 171 219 231 259 227 319 19 90 132 118 270 39 267 191 145 150 149 157 166 171 168 168 166 162 159 156 152 149 144 139 133 124 115 107 100 95 90 85 80 77 73 70 67 65 63
59 75 65 55 275 270 261 277 218 212 280 37 136 156 231 19 42 131 144 152 154 156 165 173 171 170 168 165 163 161 159 156 150 146 141 132 122 114 107 101 95 89 83 78 73 69 65 62 59
56 68 91 171 286 297 294 308 116 172 286 59 141 160 252 33 103 139 147 149 152 154 162 174 174 173 172 170 168 165 165 162 156 153 148 139 130 125 119 111 102 92 83 76 70 64 61 58 55
102 98 141 180 282 309 326 337 138 163 216 239 163 159 277 341 119 129 132 134 141 153 161 176 177 176 175 174 172 170 170 166 162 159 155 147 140 136 131 122 114 102 89 74 64 58 52 47 45
118 105 114 170 204 276 312 357 148 181 222 14 151 169 234 187 122 111 111 125 142 156 166 178 177 177 177 177 176 175 175 173 168 165 160 153 149 145 141 138 134 125 109 83 61 47 38 31 27
89 79 158 203 196 251 299 1 321 204 129 359 238 219 327 118 124 119 121 140 164 175 178 181 178 177 176 177 179 178 179 179 174 170 166 158 152 148 148 156 166 165 156 129 38 17 11 15 10
90 138 217 217 202 221 257 236 274 330 283 266 268 243 114 135 148 154 164 173 182 187 188 185 179 176 174 178 180 179 180 180 176 172 167 159 161 164 167 178 196 211 219 245 309 342 4 4 341
142 184 228 246 225 216 235 247 235 205 245 231 227 221 165 169 176 181 185 185 189 188 189 189 183 178 175 174 174 175 176 175 174 172 169 167 168 172 177 192 215 232 244 259 299 326 324 317 312
167 228 220 244 212 197 219 234 236 213 230 233 223 196 175 185 195 199 198 195 185 185 193 189 184 179 178 175 175 173 172 173 174 176 174 169 169 178 189 201 212 220 228 236 254 270 282 290 293
206 257 249 249 250 238 238 237 241 245 245 252 203 176 191 200 211 219 212 197 185 192 194 191 185 181 177 174 175 175 176 178 181 181 182 182 181 190 198 208 216 222 225 228 237 251 267 276 281
235 265 290 281 264 241 228 253 228 256 238 206 195 202 208 213 219 221 214 203 196 197 196 191 190 185 177 176 175 177 180 183 182 185 189 192 194 196 196 205 217 226 227 231 235 242 253 263 269
65 337 319 297 276 265 213 286 241 252 180 214 221 220 221 228 228 225 222 213 202 197 193 192 191 184 180 178 177 177 181 182 183 189 194 195 198 201 200 202 215 226 228 229 237 248 253 263 265
59 25 312 298 308 286 170 272 275 267 190 227 232 232 232 237 234 240 235 222 206 192 187 190 188 184 183 179 174 173 177 180 184 186 189 195 201 201 195 197 216 222 213 213 223 230 245 260 267
26 299 272 299 297 235 221 261 278 275 215 236 236 235 235 242 248 251 244 223 201 189 182 181 181 180 180 174 167 164 165 171 176 177 180 188 192 193 190 199 214 208 202 211 226 222 223 263 278
233 238 258 268 287 267 258 263 275 266 234 241 240 239 237 235 243 252 245 204 180 171 170 171 170 170 166 157 144 136 136 146 154 165 174 179 183 187 188 196 204 189 180 207 217 239 235 253 276
188 214 253 261 268 267 261 268 276 272 244 242 239 234 232 233 238 219 170 139 135 143 154 162 162 162 160 159 156 151 152 145 138 145 151 157 161 167 172 174 169 163 179 210 209 218 257 272 300
200 241 267 283 279 240 274 277 272 263 242 231 227 226 223 217 209 196 169 147 144 148 152 155 160 161 163 162 153 141 134 128 123 115 109 115 130 141 149 148 142 145 152 147 159 164 201 282 23
215 217 240 261 311 316 313 298 285 282 256 250 233 223 214 205 198 190 176 163 147 149 156 157 156 157 153 144 129 111 96 89 97 102 97 85 111 119 123 128 127 123 140 162 179 171 179 235 278
235 225 223 253 294 292 348 299 288 280 287 265 245 224 212 201 188 183 177 168 163 158 148 143 144 147 147 147 150 149 148 150 158 144 125 92 88 98 106 112 115 117 125 142 171 160 174 179 242
211 201 184 223 225 285 269 251 283 298 281 272 251 228 215 199 187 183 179 170 158 149 143 138 135 137 143 147 151 145 136 132 125 118 115 98 74 84 98 108 111 112 119 137 157 174 193 192 208
146 82 62 52 81 275 233 210 279 257 246 274 272 233 212 194 184 175 161 148 145 142 139 140 137 136 141 143 145 146 143 141 138 136 135 121 96 75 81 101 107 115 128 165 201 209 218 218 224
130 114 12 326 310 250 229 214 253 256 253 257 268 251 211 187 178 172 169 168 164 160 156 151 145 142 145 142 145 148 149 150 153 154 154 147 138 136 136 104 114 127 178 221 218 217 239 231 231
176 159 175 212 234 277 255 236 256 266 276 274 266 244 193 184 184 183 181 177 173 170 165 159 155 149 150 148 147 144 144 144 146 151 153 159 166 174 174 156 157 191 235 250 234 229 249 238 241
153 193 174 147 201 264 269 277 298 288 296 304 302 226 196 191 188 187 182 180 178 176 175 169 162 156 157 153 145 144 146 146 149 148 147 153 163 171 171 176 195 241 257 259 247 247 260 257 251
155 149 126 156 197 246 273 269 254 287 300 307 293 249 218 197 190 188 186 185 183 179 172 167 165 162 160 156 154 153 153 153 150 148 156 163 170 171 177 194 215 243 260 262 254 260 261 261 261
138 151 156 160 173 184 250 265 231 245 276 287 282 254 219 202 197 194 190 184 176 170 169 171 169 161 161 162 157 151 155 153 151 158 168 172 177 183 197 215 234 250 259 257 255 258 263 261 266
172 174 155 171 213 197 207 264 265 250 272 274 278 263 224 208 201 192 183 175 176 179 179 179 176 172 170 164 158 159 157 155 160 171 179 179 188 199 210 224 243 254 257 256 254 262 262 259 263
Height
1521 1522 1524 1527 1531 1543 1543 1537 1533 1531 1530 1529 1529 1529 1531 1533 1537 1541 1537 1536 1537 1538 1539 1541 1543 1546 1548 1550 1552 1553 1554 1555 1556 1557 1557 1558 1558 1558 1558 1558 1558 1558 1558 1558 1558 1557 1557 1557 1557
1521 1523 1526 1527 1539 1550 1544 1534 1532 1529 1528 1528 1529 1529 1530 1531 1532 1533 1534 1535 1537 1538 1539 1541 1543 1546 1548 1550 1551 1553 1554 1555 1556 1557 1558 1558 1559 1559 1559 1559 1559 1559 1558 1558 1558 1558 1558 1558 1558
1522 1524 1526 1530 1541 1546 1537 1530 1529 1527 1527 1528 1529 1529 1530 1530 1532 1533 1534 1535 1537 1538 1540 1542 1544 1546 1548 1550 1551 1553 1554 1556 1557 1558 1558 1559 1559 1560 1560 1560 1560 1559 1559 1559 1559 1559 1559 1559 1559
1523 1526 1527 1535 1537 1535 1531 1527 1527 1527 1527 1528 1528 1529 1530 1531 1532 1533 1534 1535 1537 1538 1540 1542 1544 1546 1548 1550 1552 1553 1555 1556 1557 1558 1559 1560 1560 1560 1560 1560 1560 1560 1560 1560 1560 1560 1560 1560 1560
1524 1525 1533 1540 1535 1531 1528 1527 1527 1527 1527 1528 1528 1528 1529 1531 1531 1532 1534 1535 1537 1538 1540 1542 1544 1546 1548 1550 1552 1553 1555 1556 1558 1558 1559 1560 1561 1561 1561 1561 1561 1561 1561 1561 1561 1561 1561 1561 1561
1525 1527 1541 1542 1535 1530 1527 1526 1526 1527 1527 1528 1528 1528 1528 1530 1531 1532 1534 1536 1537 1538 1540 1542 1544 1546 1548 1550 1552 1554 1555 1557 1558 1559 1560 1561 1561 1561 1562 1562 1562 1562 1562 1562 1562 1562 1562 1561 1561
1526 1531 1538 1537 1536 1531 1527 1526 1526 1527 1527 1528 1528 1528 1528 1529 1530 1531 1533 1535 1537 1538 1540 1541 1544 1546 1548 1550 1552 1554 1555 1557 1558 1559 1561 1561 1562 1562 1562 1563 1563 1563 1563 1563 1563 1563 1563 1562 1562
1525 1530 1535 1537 1535 1531 1527 1526 1526 1526 1527 1527 1527 1527 1527 1528 1529 1530 1532 1534 1535 1537 1539 1541 1543 1545 1548 1550 1552 1554 1555 1557 1558 1560 1561 1562 1562 1563 1563 1563 1564 1564 1564 1564 1564 1564 1563 1563 1563
1525 1534 1538 1534 1532 1529 1526 1525 1526 1526 1526 1526 1526 1526 1526 1527 1528 1529 1530 1532 1534 1535 1537 1539 1542 1544 1547 1549 1551 1553 1555 1557 1558 1560 1561 1562 1562 1563 1563 1564 1564 1564 1564 1564 1564 1564 1564 1563 1563
1525 1535 1531 1527 1526 1526 1525 1525 1525 1525 1525 1524 1524 1524 1524 1525 1526 1527 1528 1529 1531 1533 1535 1537 1540 1542 1545 1548 1550 1552 1554 1556 1558 1559 1560 1561 1562 1563 1563 1564 1564 1564 1565 1565 1564 1564 1564 1563 1563
1524 1528 1526 1524 1524 1524 1524 1524 1523 1523 1523 1522 1521 1521 1522 1522 1523 1524 1526 1527 1529 1531 1533 1535 1538 1541 1543 1546 1548 1551 1553 1555 1557 1558 1560 1561 1562 1562 1563 1563 1564 1564 1564 1564 1564 1564 1563 1563 1562
1524 1523 1523 1522 1522 1522 1522 1522 1521 1520 1519 1519 1519 1519 1519 1519 1520 1521 1523 1525 1526 1528 1530 1533 1536 1539 1542 1544 1547 1549 1552 1554 1556 1557 1559 1560 1561 1561 1562 1563 1563 1563 1563 1563 1563 1562 1562 1562 1561
1523 1522 1521 1521 1521 1520 1520 1519 1518 1515 1514 1515 1515 1515 1516 1517 1518 1519 1521 1522 1524 1526 1528 1530 1533 1536 1540 1543 1545 1548 1550 1552 1554 1556 1558 1559 1560 1560 1561 1561 1562 1562 1562 1562 1561 1561 1560 1560 1559
1521 1521 1520 1519 1518 1517 1517 1515 1516 1510 1511 1511 1511 1512 1513 1514 1515 1516 1517 1518 1520 1522 1525 1528 1531 1534 1537 1540 1543 1546 1548 1551 1553 1555 1556 1557 1558 1559 1559 1560 1560 1560 1560 1560 1559 1559 1558 1557 1556
1520 1521 1519 1516 1516 1515 1516 1515 1511 1507 1508 1508 1508 1509 1510 1511 1512 1512 1513 1515 1516 1519 1521 1524 1528 1531 1534 1538 1541 1544 1547 1549 1551 1553 1554 1555 1556 1557 1557 1558 1558 1558 1558 1557 1557 1556 1555 1554 1553
1521 1525 1526 1518 1515 1515 1519 1519 1506 1505 1505 1505 1505 1506 1506 1507 1508 1509 1510 1511 1512 1515 1518 1521 1524 1528 1532 1535 1539 1542 1545 1547 1549 1550 1552 1553 1554 1554 1555 1555 1555 1555 1555 1554 1554 1553 1552 1551 1550
1527 1531 1528 1522 1515 1515 1517 1516 1504 1504 1503 1502 1502 1502 1503 1504 1504 1505 1506 1507 1508 1511 1514 1517 1521 1524 1529 1533 1537 1540 1542 1545 1546 1548 1550 1551 1551 1552 1552 1552 1552 1552 1552 1551 1550 1549 1548 1547 1545
1530 1529 1528 1525 1516 1516 1517 1513 1503 1501 1501 1499 1498 1498 1499 1499 1501 1502 1503 1504 1505 1508 1511 1514 1518 1522 1526 1530 1534 1537 1540 1542 1544 1546 1547 1548 1549 1549 1549 1549 1549 1549 1548 1548 1547 1546 1544 1543 1541
1522 1525 1527 1523 1515 1516 1515 1509 1500 1495 1495 1494 1493 1493 1493 1495 1497 1498 1500 1501 1503 1505 1508 1511 1514 1518 1522 1526 1530 1534 1537 1540 1542 1543 1545 1545 1546 1546 1546 1546 1546 1545 1545 1544 1543 1542 1541 1539 1538
1521 1525 1525 1520 1514 1515 1513 1507 1496 1490 1488 1486 1485 1486 1487 1490 1492 1494 1496 1498 1500 1503 1505 1508 1512 1515 1520 1524 1528 1531 1534 1537 1539 1541 1542 1543 1543 1543 1543 1543 1542 1542 1541 1541 1540 1538 1537 1536 1534
1520 1523 1522 1520 1515 1512 1513 1506 1495 1485 1482 1480 1479 1480 1482 1484 1487 1490 1493 1495 1498 1501 1503 1506 1510 1513 1517 1521 1525 1529 1532 1534 1536 1538 1539 1540 1540 1540 1540 1539 1539 1538 1538 1537 1536 1535 1534 1532 1531
1519 1514 1516 1517 1521 1523 1518 1520 1497 1487 1482 1476 1474 1474 1476 1479 1483 1487 1490 1493 1496 1499 1502 1505 1508 1511 1515 1519 1522 1525 1528 1531 1533 1535 1536 1537 1537 1537 1536 1536 1536 1535 1534 1534 1533 1531 1530 1529 1527
1510 1508 1513 1515 1518 1523 1520 1521 1501 1488 1482 1472 1469 1469 1471 1475 1479 1483 1487 1491 1494 1497 1500 1503 1506 1510 1513 1517 1520 1523 1526 1528 1530 1532 1533 1533 1534 1533 1533 1533 1532 1532 1531 1530 1529 1528 1527 1525 1524
1505 1511 1516 1522 1524 1528 1518 1522 1507 1488 1477 1470 1466 1466 1468 1472 1476 1481 1485 1489 1492 1495 1498 1501 1504 1508 1511 1514 1517 1520 1523 1525 1527 1529 1530 1530 1530 1530 1530 1530 1529 1528 1527 1526 1525 1524 1523 1521 1520
1505 1516 1528 1527 1530 1526 1514 1516 1501 1476 1470 1468 1465 1464 1465 1468 1473 1477 1481 1485 1489 1493 1496 1499 1502 1506 1509 1512 1515 1518 1520 1523 1524 1526 1526 1527 1527 1527 1527 1526 1526 1525 1524 1523 1521 1520 1519 1517 1515
1503 1508 1522 1527 1527 1522 1513 1513 1489 1470 1466 1464 1462 1461 1462 1465 1470 1474 1478 1483 1487 1491 1494 1497 1500 1504 1507 1510 1513 1515 1518 1520 1521 1522 1523 1524 1524 1524 1523 1523 1522 1521 1520 1518 1517 1515 1514 1512 1510
1501 1505 1505 1517 1519 1521 1513 1502 1485 1465 1463 1462 1460 1459 1459 1462 1466 1471 1476 1481 1485 1488 1492 1495 1498 1501 1505 1508 1510 1513 1515 1517 1518 1519 1520 1520 1520 1520 1519 1519 1518 1517 1515 1514 1512 1510 1509 1507 1505
1490 1497 1510 1514 1520 1520 1511 1503 1490 1471 1464 1462 1460 1459 1459 1461 1465 1469 1474 1478 1482 1486 1490 1493 1496 1499 1502 1505 1507 1510 1512 1513 1515 1516 1516 1517 1516 1516 1515 1514 1513 1512 1510 1509 1507 1505 1503 1501 1499
1493 1497 1499 1507 1511 1516 1513 1500 1474 1469 1464 1462 1459 1457 1458 1460 1463 1467 1471 1475 1480 1483 1487 1490 1493 1496 1499 1502 1504 1506 1508 1510 1511 1512 1512 1513 1512 1512 1511 1510 1509 1507 1505 1503 1501 1499 1497 1495 1492
1481 1485 1493 1502 1507 1510 1510 1495 1464 1463 1461 1459 1457 1456 1457 1459 1461 1465 1468 1472 1476 1479 1483 1486 1489 1492 1495 1498 1501 1503 1505 1506 1507 1508 1508 1508 1508 1507 1506 1505 1504 1502 1500 1498 1495 1493 1491 1488 1486